Weather History for Little Rock AFB, AR

Change the Weather History Date:

Sunday, September 29, 2013

  Actual Average Record
Temperature  
Mean Temperature 73 °F -  
Max Temperature 77 °F 80 °F 96 °F (1998)
Min Temperature 69 °F 55 °F 37 °F (1967)
Cooling Degree Days 8    
Growing Degree Days 23 (Base 50)    
Moisture  
Dew Point 71 °F    
Average Humidity 95    
Maximum Humidity 100    
Minimum Humidity 78    
Precipitation  
Precipitation 10.31 in - - ()
Sea Level Pressure  
Sea Level Pressure 29.97 in    
Wind  
Wind Speed 3 mph (NE)    
Max Wind Speed 8 mph    
Max Gust Speed -    
Visibility 7 miles    
Events Rain    
Averages and records for this station are not official NWS values.
T = Trace of Precipitation, MM = Missing Value Source: NWS Daily Summary

Daily Weather History Graph

Daily Weather History Graph

Search for Another Location

Airport:

Trip Planner

Search our weather history database for the weather conditions in past years. The results will help you decide how hot, cold, wet, or windy it might be!

Date:

Astronomy

Sep. 29, 2013 Rise Set
Actual Time 7:02 AM CDT 6:55 PM CDT
Civil Twilight 6:36 AM CDT 7:20 PM CDT
Nautical Twilight 6:07 AM CDT 7:49 PM CDT
Astronomical Twilight 5:37 AM CDT 8:18 PM CDT
Moon 1:54 AM CDT (9/29) 3:41 PM CDT (9/29)
Length of Visible Light 12h 43m
Length of Day
11h 53m
Waning Crescent, 27% of the Moon is Illuminated
Sep 29
Waning Crescent
Oct 4
New
Oct 11
First Quarter
Oct 18
Full
Oct 26
Last Quarter

Hourly Weather History & Observations

Time (CDT) Temp. Dew Point Humidity Pressure Visibility Wind Dir Wind Speed Gust Speed Precip Events Conditions
12:21 AM 73.4 °F 71.6 °F 94% 30.00 in 10.0 mi Calm Calm - N/A   Light Drizzle
12:58 AM 72.5 °F 71.8 °F 98% 30.00 in 7.0 mi WSW 3.5 mph - 0.00 in   Light Drizzle
12:59 AM 71.6 °F 71.6 °F 100% 30.01 in 7.0 mi WSW 4.6 mph - N/A   Scattered Clouds
1:51 AM 71.6 °F 71.6 °F 100% 30.00 in 8.0 mi Calm Calm - N/A   Light Drizzle
1:58 AM 72.3 °F 72.0 °F 99% 30.00 in 8.0 mi SSE 2.3 mph - 0.00 in   Light Drizzle
2:00 AM 71.6 °F 71.6 °F 100% 30.00 in 8.0 mi SSE 2.3 mph - N/A   Overcast
2:19 AM 71.6 °F 71.6 °F 100% 29.99 in 7.0 mi East 4.6 mph - N/A   Light Drizzle
2:34 AM 71.6 °F 71.6 °F 100% 29.99 in 7.0 mi Calm Calm - N/A   Mostly Cloudy
2:43 AM 71.6 °F 71.6 °F 100% 30.00 in 5.0 mi NNW 3.5 mph - N/A   Mostly Cloudy
2:53 AM 71.6 °F 71.6 °F 100% 30.00 in 6.0 mi NNW 2.3 mph - N/A   Overcast
2:58 AM 72.0 °F 71.6 °F 99% 30.00 in 6.0 mi North 2.3 mph - 0.00 in   Overcast
3:03 AM 71.6 °F 71.6 °F 100% 29.99 in 6.0 mi NNE 2.3 mph - N/A   Overcast
3:13 AM 71.6 °F 71.6 °F 100% 29.99 in 5.0 mi North 2.3 mph - N/A   Overcast
3:18 AM 71.6 °F 71.6 °F 100% 29.99 in 5.0 mi North 1.2 mph - N/A   Overcast
3:48 AM 71.6 °F 71.6 °F 100% 29.99 in 5.0 mi ESE 1.2 mph - N/A   Overcast
3:53 AM 71.6 °F 71.6 °F 100% 29.98 in 6.0 mi South 2.3 mph - N/A   Overcast
3:58 AM 71.6 °F 71.6 °F 100% 29.98 in 8.0 mi SE 2.3 mph - N/A   Overcast
4:43 AM 73.4 °F 71.6 °F 94% 29.98 in 10.0 mi Variable 3.5 mph - N/A   Overcast
4:58 AM 72.5 °F 71.6 °F 97% 29.98 in 10.0 mi South 3.5 mph - N/A   Overcast
5:43 AM 71.6 °F 71.6 °F 100% 29.99 in 10.0 mi SSW 4.6 mph - N/A   Overcast
5:48 AM 73.4 °F 71.6 °F 94% 29.99 in 10.0 mi WSW 3.5 mph - N/A   Overcast
5:58 AM 72.3 °F 71.1 °F 96% 29.99 in 10.0 mi WSW 6.9 mph - N/A   Overcast
6:28 AM 71.6 °F 69.8 °F 94% 30.00 in 10.0 mi West 4.6 mph - N/A   Overcast
6:58 AM 71.6 °F 70.3 °F 96% 29.99 in 10.0 mi WNW 1.2 mph - N/A   Overcast
7:21 AM 71.6 °F 69.8 °F 94% 29.99 in 10.0 mi Calm Calm - N/A   Overcast
7:58 AM 71.6 °F 71.1 °F 98% 29.99 in 10.0 mi Calm Calm - N/A   Mostly Cloudy
8:08 AM 71.6 °F 71.6 °F 100% 29.99 in 10.0 mi Calm Calm - N/A   Mostly Cloudy
8:43 AM 73.4 °F 69.8 °F 88% 29.99 in 10.0 mi Calm Calm - N/A   Mostly Cloudy
8:48 AM 73.4 °F 69.8 °F 88% 29.99 in 10.0 mi Calm Calm - N/A   Mostly Cloudy
8:58 AM 73.6 °F 70.7 °F 91% 30.00 in 10.0 mi NNW 4.6 mph - N/A   Mostly Cloudy
9:08 AM 73.4 °F 69.8 °F 88% 29.99 in 10.0 mi NNW 5.8 mph - N/A   Overcast
9:18 AM 73.4 °F 69.8 °F 88% 30.00 in 10.0 mi North 3.5 mph - N/A   Overcast
9:38 AM 73.4 °F 69.8 °F 88% 30.00 in 10.0 mi North 1.2 mph - N/A   Overcast
9:48 AM 75.2 °F 69.8 °F 83% 30.00 in 10.0 mi WNW 1.2 mph - N/A   Overcast
9:53 AM 75.2 °F 69.8 °F 83% 30.00 in 10.0 mi WNW 1.2 mph - N/A   Overcast
9:58 AM 74.5 °F 69.8 °F 85% 30.00 in 10.0 mi Calm Calm - N/A   Overcast
10:03 AM 75.2 °F 69.8 °F 83% 30.00 in 10.0 mi NNE 1.2 mph - N/A   Overcast
10:08 AM 75.2 °F 69.8 °F 83% 30.00 in 10.0 mi North 2.3 mph - N/A   Overcast
10:13 AM 75.2 °F 69.8 °F 83% 30.00 in 10.0 mi Variable 2.3 mph - N/A   Mostly Cloudy
10:18 AM 75.2 °F 69.8 °F 83% 30.00 in 10.0 mi Variable 1.2 mph - N/A   Mostly Cloudy
10:28 AM 75.2 °F 69.8 °F 83% 30.00 in 10.0 mi Calm Calm - N/A   Mostly Cloudy
10:53 AM 75.2 °F 69.8 °F 83% 30.00 in 10.0 mi ENE 2.3 mph - N/A   Overcast
10:58 AM 75.4 °F 69.8 °F 83% 30.00 in 10.0 mi NNE 1.2 mph - N/A   Overcast
11:08 AM 75.2 °F 69.8 °F 83% 30.00 in 10.0 mi NNE 1.2 mph - N/A   Overcast
11:23 AM 75.2 °F 69.8 °F 83% 30.00 in 10.0 mi ENE 1.2 mph - N/A   Overcast
11:28 AM 75.2 °F 69.8 °F 83% 30.00 in 10.0 mi Calm Calm - N/A   Overcast
11:58 AM 76.8 °F 69.4 °F 78% 29.99 in 10.0 mi East 3.5 mph - N/A   Overcast
12:18 PM 77.0 °F 69.8 °F 78% 29.99 in 10.0 mi ESE 5.8 mph - N/A   Overcast
12:40 PM 75.2 °F 69.8 °F 83% 29.99 in 10.0 mi NNW 5.8 mph - N/A Rain Light Rain
12:49 PM 73.4 °F 71.6 °F 94% 29.98 in 6.0 mi North 6.9 mph - N/A Rain Light Rain
12:58 PM 73.4 °F 71.1 °F 92% 29.99 in 3.0 mi North 5.8 mph - 0.04 in Rain Rain
1:08 PM 73.4 °F 71.6 °F 94% 29.98 in 2.0 mi North 3.5 mph - N/A Rain Rain
1:13 PM 73.4 °F 71.6 °F 94% 29.98 in 1.8 mi North 5.8 mph - N/A Rain Rain
1:18 PM 73.4 °F 71.6 °F 94% 29.98 in 1.5 mi North 5.8 mph - N/A Rain Heavy Rain
1:23 PM 73.4 °F 71.6 °F 94% 29.97 in 1.2 mi North 3.5 mph - N/A Rain Heavy Rain
1:28 PM 71.6 °F 71.6 °F 100% 29.97 in 1.2 mi North 5.8 mph - N/A Rain Light Rain
1:33 PM 71.6 °F 71.6 °F 100% 29.97 in 1.0 mi NNE 8.1 mph - N/A Rain Heavy Rain
1:38 PM 71.6 °F 71.6 °F 100% 29.97 in 1.2 mi NNE 8.1 mph - N/A Rain Light Rain
1:43 PM 71.6 °F 71.6 °F 100% 29.97 in 2.5 mi NNE 6.9 mph - N/A Rain Light Rain
1:48 PM 71.6 °F 71.6 °F 100% 29.96 in 4.0 mi NE 5.8 mph - N/A Rain Light Rain
1:58 PM 72.1 °F 71.4 °F 98% 29.96 in 4.0 mi NE 5.8 mph - 10.27 in Rain Light Rain
2:03 PM 71.6 °F 71.6 °F 100% 29.95 in 4.0 mi NE 4.6 mph - N/A Rain Light Rain
2:17 PM 71.6 °F 71.6 °F 100% 29.95 in 7.0 mi NE 4.6 mph - N/A   Overcast
2:27 PM 71.6 °F 71.6 °F 100% 29.95 in 9.0 mi NNE 3.5 mph - N/A   Overcast
2:31 PM 71.6 °F 71.6 °F 100% 29.95 in 9.0 mi North 4.6 mph - N/A   Light Drizzle
2:36 PM 71.6 °F 71.6 °F 100% 29.95 in 7.0 mi NNE 5.8 mph - N/A Rain Light Rain
2:46 PM 71.6 °F 71.6 °F 100% 29.95 in 4.0 mi ENE 5.8 mph - N/A Rain Light Rain
2:51 PM 71.6 °F 71.6 °F 100% 29.94 in 2.0 mi East 3.5 mph - N/A Rain Light Rain
2:56 PM 71.6 °F 69.8 °F 94% 29.94 in 1.8 mi East 3.5 mph - N/A Rain Light Rain
2:58 PM 71.6 °F 69.8 °F 94% 29.94 in 2.0 mi ENE 2.3 mph - - Rain Light Rain
3:03 PM 71.6 °F 71.6 °F 100% 29.94 in 2.5 mi ENE 3.5 mph - N/A Rain Light Rain
3:08 PM 71.6 °F 71.6 °F 100% 29.94 in 3.0 mi Calm Calm - N/A Rain Light Rain
3:13 PM 71.6 °F 71.6 °F 100% 29.94 in 2.5 mi ENE 3.5 mph - N/A Rain Light Rain
3:28 PM 71.6 °F 71.6 °F 100% 29.94 in 4.0 mi ENE 3.5 mph - N/A Rain Light Rain
3:38 PM 73.4 °F 71.6 °F 94% 29.93 in 3.0 mi ENE 4.6 mph - N/A Rain Light Rain
3:43 PM 73.4 °F 71.6 °F 94% 29.94 in 2.5 mi ENE 4.6 mph - N/A Rain Light Rain
3:48 PM 73.4 °F 71.6 °F 94% 29.93 in 3.0 mi East 3.5 mph - N/A Rain Light Rain
3:53 PM 71.6 °F 71.6 °F 100% 29.94 in 4.0 mi East 2.3 mph - N/A Rain Light Rain
3:58 PM 71.6 °F 71.6 °F 100% 29.94 in 5.0 mi East 2.3 mph - -   Light Drizzle
4:13 PM 73.4 °F 71.6 °F 94% 29.94 in 2.5 mi NE 4.6 mph - N/A Rain Light Rain
4:18 PM 73.4 °F 71.6 °F 94% 29.94 in 3.0 mi ENE 5.8 mph - N/A Rain Light Rain
4:23 PM 73.4 °F 71.6 °F 94% 29.93 in 2.5 mi NE 5.8 mph - N/A Rain Light Rain
4:33 PM 73.4 °F 71.6 °F 94% 29.94 in 3.0 mi ENE 5.8 mph - N/A   Light Drizzle
4:47 PM 71.6 °F 71.6 °F 100% 29.93 in 7.0 mi ENE 4.6 mph - N/A   Overcast
4:57 PM 71.6 °F 71.6 °F 100% 29.93 in 10.0 mi ENE 4.6 mph - N/A   Overcast
4:58 PM 72.5 °F 72.0 °F 98% 29.94 in 10.0 mi ENE 4.6 mph - -   Overcast
5:13 PM 73.4 °F 71.6 °F 94% 29.93 in 10.0 mi NE 3.5 mph - N/A   Overcast
5:28 PM 73.4 °F 71.6 °F 94% 29.93 in 8.0 mi NE 5.8 mph - N/A   Light Drizzle
5:33 PM 73.4 °F 71.6 °F 94% 29.93 in 7.0 mi ENE 5.8 mph - N/A   Light Drizzle
5:39 PM 73.4 °F 71.6 °F 94% 29.93 in 7.0 mi ENE 5.8 mph - N/A   Overcast
5:49 PM 71.6 °F 71.6 °F 100% 29.93 in 6.0 mi East 5.8 mph - N/A   Overcast
5:58 PM 72.3 °F 72.0 °F 99% 29.94 in 9.0 mi East 6.9 mph - -   Overcast
6:03 PM 71.6 °F 71.6 °F 100% 29.93 in 10.0 mi East 5.8 mph - N/A   Overcast
6:23 PM 71.6 °F 71.6 °F 100% 29.94 in 10.0 mi NE 4.6 mph - N/A   Overcast
6:28 PM 71.6 °F 71.6 °F 100% 29.94 in 10.0 mi NE 5.8 mph - N/A   Overcast
6:33 PM 71.6 °F 71.6 °F 100% 29.94 in 10.0 mi NE 6.9 mph - N/A   Overcast
6:58 PM 71.6 °F 71.6 °F 100% 29.94 in 10.0 mi NE 6.9 mph - -   Overcast
7:03 PM 71.6 °F 71.6 °F 100% 29.94 in 9.0 mi NE 5.8 mph - N/A   Overcast
7:35 PM 71.6 °F 71.6 °F 100% 29.94 in 6.0 mi ENE 6.9 mph - N/A   Light Drizzle
7:45 PM 71.6 °F 71.6 °F 100% 29.95 in 5.0 mi ENE 5.8 mph - N/A   Light Drizzle
7:50 PM 71.6 °F 71.6 °F 100% 29.95 in 5.0 mi ENE 6.9 mph - N/A   Light Drizzle
7:58 PM 71.6 °F 71.6 °F 100% 29.96 in 2.0 mi ENE 8.1 mph - - Rain Light Rain
8:03 PM 71.6 °F 71.6 °F 100% 29.95 in 1.5 mi ENE 8.1 mph - N/A Rain Light Rain
8:08 PM 71.6 °F 71.6 °F 100% 29.95 in 2.0 mi East 5.8 mph - N/A Rain Light Rain
8:13 PM 71.6 °F 71.6 °F 100% 29.95 in 3.0 mi East 5.8 mph - N/A   Light Drizzle
8:17 PM 71.6 °F 71.6 °F 100% 29.95 in 4.0 mi East 6.9 mph - N/A   Overcast
8:27 PM 71.6 °F 69.8 °F 94% 29.95 in 5.0 mi ENE 5.8 mph - N/A   Overcast
8:32 PM 71.6 °F 69.8 °F 94% 29.95 in 5.0 mi ENE 5.8 mph - N/A   Overcast
8:42 PM 71.6 °F 69.8 °F 94% 29.95 in 6.0 mi ENE 6.9 mph - N/A   Overcast
8:52 PM 71.6 °F 69.8 °F 94% 29.95 in 6.0 mi ENE 5.8 mph - N/A   Overcast
8:58 PM 70.7 °F 70.3 °F 99% 29.95 in 6.0 mi NE 6.9 mph - -   Overcast
9:08 PM 71.6 °F 69.8 °F 94% 29.95 in 6.0 mi NE 5.8 mph - N/A   Overcast
9:18 PM 71.6 °F 69.8 °F 94% 29.95 in 6.0 mi NE 3.5 mph - N/A   Overcast
9:48 PM 71.6 °F 69.8 °F 94% 29.95 in 6.0 mi ENE 2.3 mph - N/A   Overcast
9:53 PM 71.6 °F 69.8 °F 94% 29.95 in 6.0 mi ENE 2.3 mph - N/A   Overcast
9:58 PM 70.7 °F 70.5 °F 99% 29.95 in 6.0 mi NE 2.3 mph - -   Overcast
10:13 PM 71.6 °F 69.8 °F 94% 29.95 in 6.0 mi ENE 5.8 mph - N/A   Overcast
10:23 PM 69.8 °F 69.8 °F 100% 29.95 in 5.0 mi ENE 5.8 mph - N/A   Overcast
10:33 PM 69.8 °F 69.8 °F 100% 29.95 in 5.0 mi NE 5.8 mph - N/A   Overcast
10:38 PM 69.8 °F 69.8 °F 100% 29.95 in 5.0 mi NE 5.8 mph - N/A   Overcast
10:58 PM 69.8 °F 69.8 °F 100% 29.95 in 4.0 mi NE 6.9 mph - -   Overcast
11:58 PM 69.8 °F 69.6 °F 99% 29.94 in 7.0 mi ENE 6.9 mph - -   Overcast